TimePST,TemperatureF,Dew PointF,Humidity,Sea Level PressureIn,VisibilityMPH,Wind Direction,Wind SpeedMPH,Gust SpeedMPH,PrecipitationIn,Events,Conditions,WindDirDegrees,DateUTC
12:56 AM,30.0,23.0,75,30.31,7.0,West,6.9,-,N/A,,Clear,280,2013-01-17 08:56:00
1:56 AM,28.9,21.9,75,30.31,7.0,West,8.1,-,N/A,,Clear,280,2013-01-17 09:56:00
2:56 AM,28.9,21.9,75,30.30,7.0,West,6.9,-,N/A,,Clear,270,2013-01-17 10:56:00
3:56 AM,27.0,23.0,85,30.30,6.0,West,6.9,-,N/A,,Clear,260,2013-01-17 11:56:00
4:56 AM,28.0,23.0,81,30.29,6.0,West,6.9,-,N/A,,Haze,270,2013-01-17 12:56:00
5:56 AM,28.0,24.1,85,30.29,6.0,Calm,Calm,-,N/A,,Clear,0,2013-01-17 13:56:00
6:56 AM,27.0,21.9,81,30.30,6.0,West,4.6,-,N/A,,Haze,260,2013-01-17 14:56:00
7:15 AM,26.6,21.2,80,30.29,5.0,West,4.6,-,N/A,,Haze,260,2013-01-17 15:15:00
7:56 AM,28.0,23.0,81,30.30,5.0,West,4.6,-,N/A,,Haze,260,2013-01-17 15:56:00
8:56 AM,37.0,30.9,79,30.32,5.0,Calm,Calm,-,N/A,,Haze,0,2013-01-17 16:56:00
9:56 AM,44.1,33.1,65,30.32,5.0,Calm,Calm,-,N/A,,Haze,0,2013-01-17 17:56:00
10:56 AM,50.0,33.1,52,30.30,6.0,Calm,Calm,-,N/A,,Haze,0,2013-01-17 18:56:00
11:56 AM,53.1,33.1,47,30.26,6.0,Calm,Calm,-,N/A,,Haze,0,2013-01-17 19:56:00
12:56 PM,55.9,33.1,42,30.23,6.0,Calm,Calm,-,N/A,,Haze,0,2013-01-17 20:56:00
1:56 PM,57.9,32.0,37,30.21,6.0,Calm,Calm,-,N/A,,Haze,0,2013-01-17 21:56:00
2:56 PM,61.0,33.1,35,30.20,6.0,Calm,Calm,-,N/A,,Haze,0,2013-01-17 22:56:00
3:56 PM,61.0,34.0,36,30.20,6.0,Calm,Calm,-,N/A,,Haze,0,2013-01-17 23:56:00
4:56 PM,57.0,33.1,40,30.20,6.0,Calm,Calm,-,N/A,,Haze,0,2013-01-18 00:56:00
5:56 PM,50.0,34.0,54,30.21,7.0,North,3.5,-,N/A,,Partly Cloudy,10,2013-01-18 01:56:00
6:56 PM,43.0,32.0,65,30.22,6.0,NNW,8.1,-,N/A,,Haze,330,2013-01-18 02:56:00
7:56 PM,41.0,30.0,65,30.22,7.0,NNW,6.9,-,N/A,,Clear,330,2013-01-18 03:56:00
8:56 PM,37.9,27.0,65,30.22,7.0,West,6.9,-,N/A,,Clear,280,2013-01-18 04:56:00
9:56 PM,37.9,28.9,70,30.22,6.0,WSW,5.8,-,N/A,,Haze,250,2013-01-18 05:56:00
10:56 PM,34.0,26.1,73,30.22,6.0,WSW,9.2,-,N/A,,Haze,250,2013-01-18 06:56:00
11:56 PM,34.0,26.1,73,30.22,6.0,West,5.8,-,N/A,,Haze,260,2013-01-18 07:56:00